EET,Max TemperatureF,Mean TemperatureF,Min TemperatureF,Max Dew PointF,MeanDew PointF,Min DewpointF,Max Humidity, Mean Humidity, Min Humidity, Max Sea Level PressureIn, Mean Sea Level PressureIn, Min Sea Level PressureIn, Max VisibilityMiles, Mean VisibilityMiles, Min VisibilityMiles, Max Wind SpeedMPH, Mean Wind SpeedMPH, Max Gust SpeedMPH,PrecipitationIn, CloudCover, Events, WindDirDegrees
2013-2-1,59,55,51,46,39,34,76,54,41,30.06,30.01,29.92,6,6,6,23,18,,0.00,1,Rain,310
2013-2-2,64,60,57,54,50,46,77,69,56,29.98,29.93,29.89,6,6,6,18,14,29,0.00,5,Rain,230
2013-2-3,66,62,59,54,51,46,77,65,52,30.04,29.97,29.95,6,6,6,29,22,39,0.00,1,Rain,172
2013-2-4,64,62,59,55,53,50,82,75,68,30.04,30.00,29.95,6,6,6,30,20,34,0.00,5,Rain,152
2013-2-5,64,62,59,54,51,50,77,71,63,29.98,29.89,29.80,6,6,6,16,12,,0.00,5,Rain,74
2013-2-6,62,58,55,54,51,46,88,73,63,29.83,29.79,29.74,6,6,6,21,10,,0.00,1,Rain,272
2013-2-7,64,62,59,50,46,43,72,59,48,29.83,29.76,29.68,6,6,6,29,16,34,0.00,3,Rain,173
2013-2-8,62,58,53,48,43,37,77,60,45,29.83,29.71,29.65,6,6,6,20,16,31,0.00,2,Rain,234
2013-2-9,60,55,50,46,43,39,76,60,52,29.98,29.93,29.83,6,6,6,20,11,21,0.00,3,Rain,226
2013-2-10,57,55,53,46,43,37,77,65,51,29.95,29.90,29.86,6,6,6,18,12,23,0.00,5,Rain,238
2013-2-11,57,50,44,43,36,32,71,54,41,30.06,29.93,29.83,6,6,6,25,14,33,0.00,3,Rain,276
2013-2-12,60,51,42,45,39,32,71,61,48,30.09,30.07,30.06,6,6,6,9,5,,0.00,2,,226
2013-2-13,62,58,55,50,46,41,72,63,55,30.04,29.99,29.92,6,6,6,24,15,26,0.00,1,Rain,155
2013-2-14,60,55,50,52,47,43,87,73,63,29.92,29.76,29.65,6,6,4,25,19,24,0.00,5,Rain-Thunderstorm,156
2013-2-15,57,54,50,46,44,39,82,69,58,30.01,29.81,29.68,6,6,6,25,14,,0.00,4,Rain,299
2013-2-16,57,52,46,45,42,39,82,68,63,30.06,30.04,30.01,6,6,6,8,7,,0.00,3,Rain,91
2013-2-17,57,52,48,50,45,41,87,74,63,30.01,29.95,29.89,6,6,6,21,5,,0.00,5,Rain,232
2013-2-18,55,50,44,43,39,36,76,64,54,30.06,30.03,29.98,6,6,6,15,11,,0.00,3,Rain,329
2013-2-19,62,52,42,48,43,36,81,65,48,30.06,29.95,29.83,6,6,6,24,9,30,0.00,5,,180
2013-2-20,60,53,46,48,41,37,76,61,48,30.06,29.98,29.83,6,6,6,22,13,23,0.00,2,Rain,344
2013-2-21,60,52,44,52,46,39,81,71,63,30.06,29.96,29.80,6,6,6,29,17,,0.00,8,Rain,116
2013-2-22,62,60,59,55,53,52,82,77,68,29.77,29.63,29.56,6,5,4,29,21,32,0.00,8,Rain,151
2013-2-23,62,58,53,55,51,48,94,76,63,30.09,29.91,29.71,6,6,6,21,15,,0.00,3,Rain,258
2013-2-24,64,58,53,57,55,50,88,82,68,30.12,30.10,30.09,6,6,6,15,11,,0.00,6,Rain,137
2013-2-25,64,62,59,57,55,54,88,78,68,30.12,30.09,30.04,6,6,6,26,20,31,0.00,3,Rain,134
2013-2-26,64,60,55,55,51,43,88,71,56,30.06,30.05,30.04,6,6,6,15,12,,0.00,2,Rain,230
2013-2-27,60,56,53,50,45,37,82,63,48,30.06,30.02,29.98,6,6,6,21,11,24,0.00,2,Rain,257
2013-2-28,57,54,51,45,40,37,71,60,51,30.15,30.10,30.04,6,6,6,25,19,,0.00,3,Rain,340